User: anonymous   Login
Location: Unspecified
(0.0000°N, 0.0000°E)
Time: 08:22:13
(UTC+00:00)
Language:

Terriers - Orbit

View from above orbital plane
View from above orbital plane
View from above satellite
View from above satellite

Ground track
Ground track

The orbit data is extracted from the following two-line orbital elements,

1 25735U 99026A   23088.85470192  .00059419  00000-0  47764-3 0  9994
2 25735  97.2340 298.2622 0004181 144.4800 215.6742 15.70783608333477
Epoch (UTC): 29 March 2023 20:30:46
Eccentricity: 0.0004181
inclination: 97.2340°
perigee height: 354 km
apogee height: 359 km
right ascension of ascending node: 298.2622°
argument of perigee: 144.4800°
revolutions per day: 15.70783608
mean anomaly at epoch: 215.6742°
orbit number at epoch: 33347

The dashed part of the orbit path shows where the satellite is in the earth's shadow,  

DLR